Rbgn^[z[y[W
メイン
   新天体発見情報
     Comet C/2020 H2 (Pruyne)
投稿するにはまず登録を

スレッド表示 | 新しいものから 前のトピック | 次のトピック | 下へ
投稿者 スレッド
佐藤裕久
投稿日時: 2020-5-19 21:47
モデレータ
登録日: 2005-6-12
居住地: 日本
投稿: 2099
オンライン
Comet C/2020 H2 (Pruyne)

Theodore A. Pruyne (月惑星研究所, Arizona大学)の通報によると、4月26日、Catalina Sky
サーベイのSchmidt望遠鏡で得た4枚の30秒CCD露出から彗星を発見した。この彗星は、非常に
非対称のようで、約15"の扇状のコマとp.a. 約280°に向かって約10"の尾があった。
小惑星センターのPCCP webpageに公表後、T. Chen (BIST彗星プロジェクト), H. B. Zhaoや
同僚 (紫金山天文台, 4月26.8日、1.04-m f/1.8 Schmidt望遠鏡; 光度15.3-15.9
等の拡散した天体が見える)や佐藤英貴氏(東京都文京区, iTelescope 天文台, 0.43-m f/6.8 
アストログラフ, Mayhill近郊, ニューメキシコ州, 遠隔操作;4月27.46-27.47日、20秒露出
24枚のスタック、強い集光があり、外側に2'.9のコマがあるが尾は見えない。80".2の円形
範囲で測定した光度は13.8等であった)らCCD位置観測者によって彗星状と観測された。

彗星機能の追加報告は次の通り:

OC   Date        Reporter           Coma    Tail    PA          Exposures
A71  2020-04-27  M. Jaeger           5'
L01  2020-04-27  K. Korlevic         65"                         18m
G40  2020-04-27  M. Suzuki           1'                          6x20s
850  2020-04-27  D. T. Durig         30"            10          60x10s
X02  2020-04-27  E. Guido            1'                         55x10s
H06  2020-04-27  H. Sato             2'.9                       24x20s
H06  2020-04-27  K. Yoshimoto        1'                         10x30s
U69  2020-04-27  B. Lutkenhoner      1'.5                        8x60s
Q38  2020-04-27  M. Mattiazzo        1'                         10x30s
C73  2020-04-28  S. Deen             80"                         4x30s
G40  2020-04-28  B. Lutkenhoner      2'                         20x50s
G40  2020-04-28  N. Paul             2'                          8x20s
H06  2020-04-28  R. Ligustri         3'                         11x30s
H06  2020-04-28  D. Denisenko        1'.5                        9x60s

発見位置は次のとおり、

     2020 UT             R.A. (2000) Decl.       Mag.   Observer
     Apr. 26.47112   22 34 35.89   +13 53 49.8   16.2   Pruyne
          26.47904   22 34 36.39   +13 55 01.1   16.2     "
          26.48300   22 34 36.75   +13 55 34.6   16.1     "

MPCの放物線軌道要素と位置推算表は次のとおり、

Orbital elements:
    C/2020 H2 (Pruyne)                                                          
T 2020 Apr. 27.62059 TT                                 Rudenko                 
q   0.8337198            (2000.0)            P               Q                  
                   Peri.   26.76554     -0.13695076     -0.56831770             
                   Node   277.68109     -0.99019717     +0.05583663             
e   1.0            Incl.  125.04736     -0.02746002     +0.82091245             
From 47 observations 2020 Apr. 26-28.                                           
                                                                                
Ephemeris:
Date    TT    R. A. (2000) Decl.     Delta      r    Elong.  Phase   m1
2020 03 29    22 26 33.7 -21 35 46   1.5427  0.9982    39.4    39.4  18.9
...
2020 04 13    22 27 30.2 -09 03 19   1.1349  0.8777    48.0    58.1  17.7
...
2020 04 21    22 30 13.3 +02 27 15   0.9181  0.8430    51.8    69.4  17.1
...
2020 04 27    22 35 11.2 +15 11 53   0.7780  0.8338    53.9    77.2  16.7
2020 04 28    22 36 25.9 +17 45 37   0.7583  0.8337    54.2    78.3  16.6
2020 04 29    22 37 50.3 +20 27 19   0.7399  0.8341    54.5    79.3  16.6
...
2020 05 05    22 51 17.3 +39 08 18   0.6656  0.8452    56.3    82.8  16.4
...
2020 05 13    23 43 21.3 +65 51 19   0.6869  0.8821    59.0    79.1  16.6
...
2020 05 28    07 47 33.5 +74 26 05   1.0112  1.0056    59.6    60.3  18.0

(MPEC 2020-H220、CBET 4761)

スレッド表示 | 新しいものから 前のトピック | 次のトピック | トップ

投稿するにはまず登録を
 
© 1999 Tsutomu Seki.